KI5NXU Weather Reports


Display with metric or nautical units.
time (UTC)temp
F
wind
direction
speed
MPH
gust
MPH
rain 1hr
in
rain 24hr
in
rain mn
in
humidity
%
barometer
mb
20260507142042 56 353 1.0 1.0 0.00 0.00 0.00 84 1019.8
20260507141538 56 25 1.0 2.0 0.00 0.00 0.00 84 1019.7
20260507141035 56 30 0.0 0.0 0.00 0.00 0.00 85 1019.8
20260507140532 55 33 1.0 1.0 0.00 0.00 0.00 86 1020.0
20260507140029 55 13 3.0 3.0 0.00 0.00 0.00 86 1019.8
20260507135526 54 1 3.0 5.0 0.00 0.00 0.00 87 1019.7
20260507135023 54 349 1.0 2.0 0.00 0.00 0.00 87 1020.0
20260507134520 55 41 2.0 2.0 0.00 0.00 0.00 86 1020.0
20260507134015 54 35 1.0 1.0 0.00 0.00 0.00 87 1020.0
20260507133512 54 55 1.0 1.0 0.00 0.00 0.00 87 1019.7
20260507133010 54 63 1.0 1.0 0.00 0.00 0.00 88 1019.7
20260507132506 54 41 1.0 1.0 0.00 0.00 0.00 89 1020.0
20260507132002 53 47 1.0 1.0 0.00 0.00 0.00 90 1020.0
20260507131459 53 82 0.0 0.0 0.00 0.00 0.00 90 1019.8
20260507130956 53 97 0.0 0.0 0.00 0.00 0.00 91 1019.8
20260507130453 52 100 0.0 0.0 0.00 0.00 0.00 91 1019.8
20260507125952 51 100 0.0 0.0 0.00 0.00 0.00 91 1020.0
20260507125450 51 100 0.0 0.0 0.00 0.00 0.00 92 1019.8
20260507124947 50 100 0.0 0.0 0.00 0.00 0.00 92 1019.7
20260507124443 50 100 0.0 0.0 0.00 0.00 0.00 92 1019.6
20260507123941 50 101 0.0 0.0 0.00 0.00 0.00 92 1019.6
20260507123439 49 100 0.0 0.0 0.00 0.00 0.00 92 1019.5
20260507122935 50 100 0.0 0.0 0.00 0.00 0.00 92 1019.3
20260507122430 49 100 0.0 0.0 0.00 0.00 0.00 92 1019.6
20260507121927 48 100 0.0 0.0 0.00 0.00 0.00 92 1019.4
20260507121422 48 98 0.0 0.0 0.00 0.00 0.00 92 1019.5
20260507120919 48 94 0.0 0.0 0.00 0.00 0.00 92 1019.5
20260507120415 48 93 0.0 0.0 0.00 0.00 0.00 92 1019.1
20260507115912 48 93 0.0 0.0 0.00 0.00 0.00 92 1019.4
20260507115408 49 93 0.0 0.0 0.00 0.00 0.00 92 1019.1
20260507114903 48 89 0.0 0.0 0.00 0.00 0.00 92 1019.5
20260507114401 49 82 1.0 1.0 0.00 0.00 0.00 92 1019.2
20260507113858 49 59 0.0 0.0 0.00 0.00 0.00 92 1019.1
20260507113355 50 51 0.0 0.0 0.00 0.00 0.00 91 1019.0
20260507112852 50 40 0.0 0.0 0.00 0.00 0.00 91 1019.0
20260507112349 51 38 1.0 1.0 0.00 0.00 0.00 91 1019.0
20260507111847 51 37 0.0 0.0 0.00 0.00 0.00 91 1019.1
20260507111343 51 25 0.0 0.0 0.00 0.00 0.00 91 1019.0
20260507110839 51 12 2.0 3.0 0.00 0.00 0.00 91 1019.2
20260507110336 51 11 2.0 2.0 0.00 0.00 0.00 90 1019.4
20260507105833 52 17 2.0 2.0 0.00 0.00 0.00 90 1019.3
20260507105329 52 38 1.0 1.0 0.00 0.00 0.00 90 1019.2
20260507104826 52 19 2.0 2.0 0.00 0.00 0.00 90 1019.1
20260507104323 52 33 0.0 1.0 0.00 0.00 0.00 90 1019.5
20260507103819 52 19 1.0 1.0 0.00 0.00 0.00 90 1019.2
20260507103315 52 34 1.0 1.0 0.00 0.00 0.00 90 1019.0
20260507102812 52 15 1.0 1.0 0.00 0.00 0.00 90 1019.2
20260507102309 52 32 0.0 0.0 0.00 0.00 0.00 90 1018.9
20260507101805 52 14 1.0 1.0 0.00 0.00 0.00 89 1019.1
20260507101304 52 3 1.0 1.0 0.00 0.00 0.00 89 1019.1
20260507100802 52 354 1.0 2.0 0.00 0.00 0.00 89 1019.1
20260507100300 52 327 3.0 3.0 0.00 0.00 0.00 89 1018.9
20260507095758 53 319 2.0 2.0 0.00 0.00 0.00 89 1019.0
20260507095254 53 327 2.0 3.0 0.00 0.00 0.00 89 1019.0
20260507094751 53 340 3.0 5.0 0.00 0.00 0.00 89 1018.8
20260507094248 53 29 2.0 2.0 0.00 0.00 0.00 89 1018.7
20260507093745 53 25 0.0 0.0 0.00 0.00 0.00 89 1018.7
20260507093244 53 342 2.0 3.0 0.00 0.00 0.00 88 1018.5
20260507092741 53 89 2.0 2.0 0.00 0.00 0.00 89 1018.4
20260507092236 52 86 0.0 1.0 0.00 0.00 0.00 89 1018.3
20260507091733 52 76 1.0 1.0 0.00 0.00 0.00 90 1018.1
20260507091230 51 81 1.0 1.0 0.00 0.00 0.00 90 1018.1
20260507090725 51 114 0.0 0.0 0.00 0.00 0.00 90 1018.2
20260507090222 51 118 0.0 0.0 0.00 0.00 0.00 90 1018.0
20260507085719 52 118 1.0 1.0 0.00 0.00 0.00 90 1018.2
20260507085216 52 107 1.0 2.0 0.00 0.00 0.00 90 1017.9
20260507084713 51 98 0.0 0.0 0.00 0.00 0.00 90 1018.1
20260507084209 51 105 0.0 1.0 0.00 0.00 0.00 90 1018.1
20260507083707 52 93 0.0 0.0 0.00 0.00 0.00 89 1017.7
20260507083204 52 88 0.0 0.0 0.00 0.00 0.00 88 1017.8
20260507082659 53 91 1.0 1.0 0.00 0.00 0.00 88 1017.6
20260507082155 52 76 1.0 1.0 0.00 0.00 0.00 89 1017.5
20260507081653 52 76 1.0 1.0 0.00 0.00 0.00 89 1017.6
20260507081149 52 84 0.0 0.0 0.00 0.00 0.00 89 1017.8
20260507080645 52 86 0.0 0.0 0.00 0.00 0.00 88 1017.6
20260507080143 53 85 1.0 1.0 0.00 0.00 0.00 88 1017.5
20260507075642 53 79 2.0 2.0 0.00 0.00 0.00 88 1017.5
20260507075139 53 90 3.0 3.0 0.00 0.00 0.00 88 1017.5
20260507074636 53 66 0.0 0.0 0.00 0.00 0.00 88 1017.4
20260507074134 53 65 1.0 2.0 0.00 0.00 0.00 88 1017.3
20260507073630 52 78 0.0 1.0 0.00 0.00 0.00 89 1017.6
20260507073127 52 79 0.0 0.0 0.00 0.00 0.00 89 1017.5
20260507072625 52 91 1.0 2.0 0.00 0.00 0.00 90 1017.1
20260507072122 52 88 0.0 0.0 0.00 0.00 0.00 90 1017.2
20260507071619 51 90 0.0 1.0 0.00 0.00 0.00 90 1017.3
20260507071115 51 96 0.0 0.0 0.00 0.00 0.00 90 1017.5
20260507070612 52 91 0.0 0.0 0.00 0.00 0.00 89 1017.5
20260507070109 52 85 1.0 1.0 0.00 0.00 0.00 89 1017.4
20260507065606 53 80 0.0 0.0 0.00 0.00 0.00 89 1017.5
20260507065103 53 83 0.0 0.0 0.00 0.00 0.00 88 1017.5
20260507064600 53 83 0.0 0.0 0.00 0.00 0.00 87 1017.7
20260507064059 53 81 1.0 1.0 0.00 0.00 0.00 88 1017.4
20260507063556 53 86 0.0 0.0 0.00 0.00 0.00 87 1017.6
20260507063048 53 90 2.0 2.0 0.00 0.00 0.00 87 1017.4
20260507062544 53 72 0.0 1.0 0.00 0.00 0.00 88 1017.3
20260507062042 53 74 0.0 1.0 0.00 0.00 0.00 88 1017.3
20260507061539 54 60 0.0 0.0 0.00 0.00 0.00 87 1017.0
20260507061037 53 85 0.0 1.0 0.00 0.00 0.00 87 1016.9
20260507060535 54 70 1.0 3.0 0.00 0.00 0.00 87 1016.7
20260507060031 54 63 2.0 2.0 0.00 0.00 0.00 87 1016.6
20260507055531 54 75 1.0 2.0 0.00 0.00 0.00 87 1016.8
20260507055028 54 75 1.0 1.0 0.00 0.00 0.00 87 1016.8
20260507054524 54 90 1.0 2.0 0.00 0.00 0.00 87 1016.7
20260507054021 54 57 3.0 3.0 0.00 0.00 0.00 87 1016.7
20260507053519 53 92 3.0 3.0 0.00 0.00 0.00 88 1016.3
20260507053017 53 78 1.0 2.0 0.00 0.00 0.00 89 1016.3
20260507052515 52 81 3.0 5.0 0.00 0.00 0.00 90 1016.4
20260507052011 52 84 1.0 1.0 0.00 0.00 0.00 90 1016.4
20260507051509 52 90 0.0 0.0 0.00 0.00 0.00 89 1016.3
20260507051006 53 90 0.0 0.0 0.00 0.00 0.00 88 1016.2
20260507050502 54 88 0.0 0.0 0.00 0.00 0.00 88 1016.2
20260507045959 54 67 1.0 2.0 0.00 0.00 0.00 88 1016.2
20260507045455 54 102 3.0 5.0 0.00 0.00 0.00 87 1016.2
20260507044953 54 95 1.0 2.0 0.00 0.00 0.00 88 1016.3
20260507044449 53 82 2.0 2.0 0.00 0.00 0.00 88 1016.3
20260507043945 54 87 1.0 1.0 0.00 0.00 0.00 87 1016.3
20260507043442 54 84 1.0 2.0 0.00 0.00 0.00 87 1016.6
20260507042938 54 74 0.0 0.0 0.00 0.00 0.00 87 1016.3
20260507042435 55 70 0.0 0.0 0.00 0.00 0.00 86 1016.4
20260507041931 55 52 2.0 2.0 0.00 0.00 0.00 85 1016.6
20260507041427 55 69 1.0 2.0 0.00 0.00 0.00 86 1016.4
20260507040925 55 79 0.0 1.0 0.00 0.00 0.00 86 1016.4
20260507040421 55 79 1.0 1.0 0.00 0.00 0.00 86 1016.7
20260507035917 55 83 1.0 1.0 0.00 0.00 0.00 86 1016.6
20260507035413 55 86 1.0 1.0 0.00 0.00 0.00 86 1016.3
20260507034910 55 70 1.0 3.0 0.00 0.00 0.00 86 1016.1
20260507034407 55 81 2.0 2.0 0.00 0.00 0.00 85 1016.2
20260507033905 55 86 1.0 3.0 0.00 0.00 0.00 85 1016.1
20260507033403 55 84 0.0 0.0 0.00 0.00 0.00 85 1016.1
20260507032859 55 102 0.0 0.0 0.00 0.00 0.00 86 1015.9
20260507032356 55 105 0.0 0.0 0.00 0.00 0.00 85 1016.0
20260507031852 55 84 0.0 0.0 0.00 0.00 0.00 85 1016.0
20260507031349 55 83 0.0 0.0 0.00 0.00 0.00 85 1015.9
20260507030846 55 91 0.0 0.0 0.00 0.00 0.00 84 1015.8
20260507030343 55 61 0.0 2.0 0.00 0.00 0.00 84 1015.7
20260507025840 56 74 0.0 0.0 0.00 0.00 0.00 83 1015.8
20260507025338 56 93 0.0 0.0 0.00 0.00 0.00 82 1015.4
20260507024835 57 77 0.0 0.0 0.00 0.00 0.00 81 1015.7
20260507024332 57 68 0.0 1.0 0.00 0.00 0.00 79 1015.6
20260507023828 57 67 0.0 0.0 0.00 0.00 0.00 79 1015.5
20260507023325 57 77 0.0 0.0 0.00 0.00 0.00 79 1015.4
20260507022822 58 106 0.0 0.0 0.00 0.00 0.00 78 1015.5
20260507022318 58 69 0.0 0.0 0.00 0.00 0.00 78 1015.3
20260507021809 59 73 1.0 2.0 0.00 0.00 0.00 77 1015.3
20260507021304 59 76 0.0 2.0 0.00 0.00 0.00 76 1015.5
20260507020803 59 72 0.0 0.0 0.00 0.00 0.00 76 1015.1
20260507020259 59 77 0.0 0.0 0.00 0.00 0.00 75 1015.2
20260507015756 59 55 0.0 0.0 0.00 0.00 0.00 75 1015.2
20260507015254 60 76 0.0 0.0 0.00 0.00 0.00 74 1015.4
20260507014750 60 77 0.0 0.0 0.00 0.00 0.00 74 1015.3
20260507014247 60 6 0.0 1.0 0.00 0.00 0.00 73 1015.2
20260507013743 60 89 0.0 0.0 0.00 0.00 0.00 73 1015.0
20260507013241 60 75 0.0 0.0 0.00 0.00 0.00 73 1014.8
20260507012738 61 59 0.0 0.0 0.00 0.00 0.00 72 1014.9
20260507012233 61 64 0.0 0.0 0.00 0.00 0.00 71 1014.8
20260507011732 61 80 0.0 0.0 0.00 0.00 0.00 72 1014.7
20260507011228 62 98 0.0 0.0 0.00 0.00 0.00 71 1014.6
20260507010728 62 82 0.0 2.0 0.00 0.00 0.00 70 1014.6
20260507010224 62 22 1.0 2.0 0.00 0.00 0.00 69 1014.7
20260507005722 62 58 2.0 5.0 0.00 0.00 0.00 69 1014.5
20260507005218 62 69 0.0 0.0 0.00 0.00 0.00 69 1014.5
20260507004714 62 39 0.0 1.0 0.00 0.00 0.00 69 1014.4
20260507004213 63 49 1.0 2.0 0.00 0.00 0.00 68 1014.2
20260507003708 63 11 1.0 3.0 0.00 0.00 0.00 67 1014.2
20260507003204 64 46 1.0 6.0 0.00 0.00 0.00 67 1014.2
20260507002700 64 20 0.0 0.0 0.00 0.00 0.00 67 1014.0
20260507002156 63 52 0.0 0.0 0.00 0.00 0.00 68 1014.0
20260507001653 62 21 1.0 5.0 0.00 0.00 0.00 69 1014.1
20260507001150 63 57 0.0 1.0 0.00 0.00 0.00 69 1014.1
20260507000646 63 16 0.0 0.0 0.00 0.00 0.00 69 1014.0
20260507000142 63 47 0.0 0.0 0.00 0.00 0.00 68 1013.9
20260506235640 63 15 0.0 0.0 0.00 0.00 0.00 68 1014.0
20260506235140 63 27 0.0 1.0 0.00 0.00 0.00 68 1013.9
20260506234637 63 50 0.0 0.0 0.00 0.00 0.00 68 1013.6
20260506234134 64 78 0.0 0.0 0.00 0.00 0.00 68 1013.8
20260506233631 64 321 3.0 5.0 0.00 0.00 0.00 67 1013.6
20260506233128 64 21 0.0 1.0 0.00 0.00 0.00 67 1013.6
20260506232624 64 2 0.0 1.0 0.00 0.00 0.00 66 1013.5
20260506232120 65 39 4.0 7.0 0.00 0.00 0.00 66 1013.6
20260506231617 65 111 0.0 1.0 0.00 0.00 0.00 65 1013.4
20260506231116 65 71 0.0 0.0 0.00 0.00 0.00 65 1013.5
20260506230612 65 326 0.0 1.0 0.00 0.00 0.00 65 1013.3
20260506230109 65 10 0.0 1.0 0.00 0.00 0.00 64 1013.4
20260506225605 65 348 1.0 2.0 0.00 0.00 0.00 65 1013.0
20260506225102 66 4 0.0 0.0 0.00 0.00 0.00 65 1012.9
20260506224559 66 2 0.0 0.0 0.00 0.00 0.00 65 1012.8
20260506224055 66 341 1.0 3.0 0.00 0.00 0.00 65 1012.8
20260506223551 66 20 2.0 6.0 0.00 0.00 0.00 65 1012.9
20260506223048 66 17 5.0 8.0 0.00 0.00 0.00 65 1012.9
20260506222545 66 339 2.0 6.0 0.00 0.00 0.00 64 1012.9
20260506222041 66 355 0.0 0.0 0.00 0.00 0.00 64 1012.9
20260506221539 67 282 1.0 2.0 0.00 0.00 0.00 64 1012.8
20260506221037 68 335 0.0 2.0 0.00 0.00 0.00 63 1012.7
20260506220532 68 331 0.0 1.0 0.00 0.00 0.00 62 1012.8
20260506220028 68 8 1.0 3.0 0.00 0.00 0.00 62 1012.7
20260506215525 68 0 1.0 2.0 0.00 0.00 0.00 61 1012.7
20260506215021 68 333 0.0 1.0 0.00 0.00 0.00 61 1012.7
20260506214518 69 34 0.0 1.0 0.00 0.00 0.00 61 1012.7
20260506214015 69 7 1.0 3.0 0.00 0.00 0.00 59 1012.7
20260506213513 69 53 0.0 0.0 0.00 0.00 0.00 60 1012.6
20260506213009 70 354 0.0 2.0 0.00 0.00 0.00 59 1012.5
20260506212506 70 287 4.0 7.0 0.00 0.00 0.00 60 1012.6
20260506212001 69 7 0.0 0.0 0.00 0.00 0.00 61 1012.7
20260506211457 69 340 0.0 1.0 0.00 0.00 0.00 62 1012.7
20260506210949 69 274 4.0 7.0 0.00 0.00 0.00 60 1012.6
20260506210445 69 45 1.0 3.0 0.00 0.00 0.00 62 1012.7
20260506205942 69 336 0.0 0.0 0.00 0.00 0.00 60 1012.6
20260506205438 68 16 1.0 2.0 0.00 0.00 0.00 62 1012.9
20260506204934 68 100 0.0 0.0 0.00 0.00 0.00 59 1012.8
20260506204432 69 44 0.0 0.0 0.00 0.00 0.00 60 1012.9
20260506203929 69 58 0.0 0.0 0.00 0.00 0.00 59 1012.9
20260506203426 68 55 0.0 2.0 0.00 0.00 0.00 60 1013.0
20260506202923 68 60 0.0 0.0 0.00 0.00 0.00 60 1013.0
20260506202421 68 55 0.0 0.0 0.00 0.00 0.00 60 1013.3
20260506201917 68 24 0.0 0.0 0.00 0.00 0.00 60 1013.2
20260506201415 67 17 0.0 1.0 0.00 0.00 0.00 62 1013.4
20260506200911 68 349 0.0 0.0 0.00 0.00 0.00 61 1013.3
20260506200407 66 29 0.0 0.0 0.00 0.00 0.00 62 1013.4
20260506195904 66 344 2.0 3.0 0.00 0.00 0.00 61 1013.7
20260506195401 67 359 0.0 0.0 0.00 0.00 0.00 62 1013.4
20260506194858 67 17 0.0 0.0 0.00 0.00 0.00 62 1013.6
20260506194354 68 36 0.0 0.0 0.00 0.00 0.00 60 1013.6
20260506193852 67 10 0.0 1.0 0.00 0.00 0.00 61 1013.7
20260506193349 68 93 0.0 0.0 0.00 0.00 0.00 58 1013.6
20260506192845 68 21 0.0 1.0 0.00 0.00 0.00 60 1013.7
20260506192342 68 48 0.0 0.0 0.00 0.00 0.00 60 1013.3
20260506191839 65 30 0.0 0.0 0.00 0.00 0.00 64 1013.4
20260506191335 66 333 3.0 5.0 0.00 0.00 0.00 61 1013.6
20260506190833 65 336 2.0 5.0 0.00 0.00 0.00 63 1013.4
20260506190329 65 7 0.0 0.0 0.00 0.00 0.00 63 1013.8
20260506185826 64 65 2.0 5.0 0.00 0.00 0.00 63 1013.6
20260506185323 64 347 4.0 7.0 0.00 0.00 0.00 64 1013.9
20260506184819 64 14 0.0 0.0 0.00 0.00 0.00 63 1014.0
20260506184316 64 39 0.0 1.0 0.00 0.00 0.00 63 1014.0
20260506183813 65 80 0.0 2.0 0.00 0.00 0.00 61 1014.2
20260506183308 64 3 0.0 0.0 0.00 0.00 0.00 65 1013.9
20260506182806 64 28 2.0 5.0 0.00 0.00 0.00 63 1013.7
20260506182306 63 328 0.0 0.0 0.00 0.00 0.00 66 1013.9
20260506181801 62 29 0.0 1.0 0.00 0.00 0.00 65 1014.2
20260506181258 62 282 6.0 7.0 0.00 0.00 0.00 66 1014.2
20260506180755 63 356 5.0 6.0 0.00 0.00 0.00 65 1014.2
20260506180251 62 70 2.0 3.0 0.00 0.00 0.00 64 1014.3
20260506175747 62 35 2.0 3.0 0.00 0.00 0.00 68 1014.1
20260506175244 62 342 7.0 8.0 0.00 0.00 0.00 66 1013.9
20260506174742 62 309 5.0 6.0 0.00 0.00 0.00 65 1013.9
20260506174239 62 8 3.0 3.0 0.00 0.00 0.00 64 1014.4
20260506173737 61 324 2.0 5.0 0.00 0.00 0.00 67 1014.4
20260506173233 62 35 2.0 2.0 0.00 0.00 0.00 64 1014.5
20260506172730 62 7 5.0 7.0 0.00 0.00 0.00 65 1014.2
20260506172227 61 9 3.0 5.0 0.00 0.00 0.00 67 1014.2
20260506171724 60 310 6.0 9.0 0.00 0.00 0.00 67 1014.4
20260506171222 61 2 5.0 7.0 0.00 0.00 0.00 66 1014.4
20260506170719 60 32 7.0 8.0 0.00 0.00 0.00 66 1014.5
20260506170215 59 83 2.0 3.0 0.00 0.00 0.00 68 1014.4
20260506165714 59 63 3.0 5.0 0.00 0.00 0.00 70 1014.1
20260506165210 60 67 5.0 8.0 0.00 0.00 0.00 68 1014.0
20260506164708 60 350 4.0 6.0 0.00 0.00 0.00 68 1014.0
20260506164205 59 39 3.0 5.0 0.00 0.00 0.00 69 1013.9
20260506163701 61 54 2.0 3.0 0.00 0.00 0.00 66 1014.1
20260506163156 60 64 7.0 10.0 0.00 0.00 0.00 68 1014.4
20260506162652 58 40 5.0 8.0 0.00 0.00 0.00 70 1014.3
20260506162150 57 348 2.0 3.0 0.00 0.00 0.00 71 1014.8
20260506161647 57 69 5.0 6.0 0.00 0.00 0.00 71 1014.6
20260506161144 56 69 5.0 7.0 0.00 0.00 0.00 72 1014.6
20260506160642 56 78 6.0 8.0 0.00 0.00 0.00 73 1014.6
20260506160139 56 346 4.0 7.0 0.00 0.00 0.00 74 1014.1
20260506155638 55 14 3.0 5.0 0.00 0.00 0.00 74 1014.2
20260506155134 56 38 3.0 7.0 0.00 0.00 0.00 74 1013.9
20260506153236 55 67 0.0 1.0 0.00 0.00 0.00 75 1013.8
20260506152733 55 25 4.0 6.0 0.00 0.00 0.00 76 1013.5
20260506152230 55 61 7.0 8.0 0.00 0.00 0.00 76 1013.5
20260506151729 54 36 6.0 9.0 0.00 0.00 0.00 78 1013.5
20260506151225 53 45 4.0 7.0 0.00 0.00 0.00 79 1013.9
20260506150721 53 24 3.0 3.0 0.00 0.00 0.00 79 1014.0
20260506150219 53 295 4.0 6.0 0.00 0.00 0.00 79 1014.2
20260506145716 53 20 7.0 9.0 0.00 0.00 0.00 79 1014.8
20260506145212 53 327 3.0 5.0 0.00 0.00 0.00 80 1015.1
20260506144710 53 2 5.0 6.0 0.00 0.00 0.00 80 1015.4
20260506144206 52 13 3.0 3.0 0.00 0.00 0.00 81 1015.6
20260506143704 52 58 1.0 1.0 0.00 0.00 0.00 81 1015.9
20260506143202 52 59 1.0 1.0 0.00 0.00 0.00 82 1015.8
20260506142700 52 77 3.0 5.0 0.00 0.00 0.00 81 1016.1
20260506142158 52 30 0.0 0.0 0.00 0.00 0.00 83 1015.8